PWSweather.com
Personal Weather Stations
Station Observations
KILMORRI1
Goose Lake, Morris, IL 60450

Goose LakeMorris, IL 60450

Lat: 41.34, Lon: -88.3

Elevation: 523

Station Type:

Latest ConditionsUpdated 8:30:06 AM CDT Saturday, Mar 25, 2017
Currently Today's Max Today's Min Today's Average
Temperature 44.5°F6.9°C 44.5°F6.9°C 41.8°F5.4°C 43.4°F6.3°C
Dew Point 43.4°F6.3°C 43.4°F6.3°C 39.6°F4.2°C 41.2°F5.1°C
Winds 10.4 mph ENE16.7 kmh ENE 12.7 mph ENE20.4 kmh ENE - 7.8 mph 12.6 kmh
Wind Gusts 12.7 mph20.4 kmh 16.1 mph25.9 kmh - -
Humidity 96% 96% 86% 92%
Pressure 29.96 in1014.6 mb 30.03 in1016.9 mb 29.96 in1014.6 mb -
Precipitation - 0.51 in13.0 mm - -
Hour Temp Dew Point Humidity Winds Wind Gusts Pressure Precip Precip Rate Daily Precip Total
08:30 AM 44.5°F6.9°C 43.4°F6.3°C 96% 10.4 mph ENE16.7 kmh ENE 12.7 mph20.4 kmh 29.96 in1014.6 mb - 0.00 in0.0 mm 0.51 in13.0 mm
08:20 AM 44.5°F6.9°C 43.4°F6.3°C 96% 9.2 mph ENE14.8 kmh ENE 11.5 mph18.5 kmh 29.96 in1014.6 mb - 0.00 in0.0 mm 0.51 in13.0 mm
08:10 AM 44.2°F6.8°C 42.9°F6.1°C 95% 6.9 mph ENE11.1 kmh ENE 8.1 mph13.0 kmh 29.97 in1014.9 mb - 0.00 in0.0 mm 0.51 in13.0 mm
08:00 AM 44.0°F6.7°C 42.7°F5.9°C 95% 9.2 mph ENE14.8 kmh ENE 11.5 mph18.5 kmh 29.97 in1014.9 mb - 0.02 in0.5 mm 0.51 in13.0 mm
07:50 AM 43.8°F6.6°C 42.4°F5.8°C 95% 8.1 mph ENE13.0 kmh ENE 11.5 mph18.5 kmh 29.97 in1014.9 mb - 0.00 in0.0 mm 0.49 in12.4 mm
07:40 AM 43.8°F6.6°C 42.5°F5.8°C 95% 6.9 mph NE11.1 kmh NE 8.1 mph13.0 kmh 29.97 in1014.9 mb - 0.01 in0.3 mm 0.49 in12.4 mm
07:30 AM 43.8°F6.6°C 42.5°F5.8°C 95% 6.9 mph ENE11.1 kmh ENE 10.4 mph16.7 kmh 29.98 in1015.2 mb - 0.02 in0.5 mm 0.48 in12.2 mm
07:20 AM 43.7°F6.5°C 42.4°F5.8°C 95% 6.9 mph ENE11.1 kmh ENE 13.8 mph22.2 kmh 29.98 in1015.2 mb - 0.06 in1.5 mm 0.47 in11.9 mm
07:10 AM 43.5°F6.4°C 42.2°F5.7°C 95% 4.6 mph ENE7.4 kmh ENE 8.1 mph13.0 kmh 29.99 in1015.6 mb - 0.00 in0.0 mm 0.41 in10.4 mm
07:00 AM 43.7°F6.5°C 42.4°F5.8°C 95% 6.9 mph ENE11.1 kmh ENE 11.5 mph18.5 kmh 29.98 in1015.2 mb - 0.01 in0.3 mm 0.41 in10.4 mm
06:50 AM 43.8°F6.6°C 42.5°F5.8°C 95% 11.5 mph ENE18.5 kmh ENE 15.0 mph24.1 kmh 29.99 in1015.6 mb - 0.01 in0.3 mm 0.40 in10.2 mm
06:40 AM 43.7°F6.5°C 42.4°F5.8°C 95% 5.8 mph ENE9.3 kmh ENE 6.9 mph11.1 kmh 29.99 in1015.6 mb - 0.00 in0.0 mm 0.39 in9.9 mm
06:30 AM 43.5°F6.4°C 42.2°F5.7°C 95% 6.9 mph E11.1 kmh E 10.4 mph16.7 kmh 29.98 in1015.2 mb - 0.00 in0.0 mm 0.39 in9.9 mm
06:20 AM 43.3°F6.3°C 41.7°F5.4°C 94% 6.9 mph ENE11.1 kmh ENE 10.4 mph16.7 kmh 29.97 in1014.9 mb - 0.03 in0.8 mm 0.39 in9.9 mm
06:10 AM 43.3°F6.3°C 41.7°F5.4°C 94% 8.1 mph NE13.0 kmh NE 11.5 mph18.5 kmh 29.98 in1015.2 mb - 0.05 in1.3 mm 0.37 in9.4 mm
06:00 AM 43.5°F6.4°C 41.9°F5.5°C 94% 4.6 mph NE7.4 kmh NE 5.8 mph9.3 kmh 30.00 in1015.9 mb - 0.06 in1.5 mm 0.33 in8.4 mm
05:50 AM 43.4°F6.3°C 41.5°F5.3°C 93% 4.6 mph ENE7.4 kmh ENE 8.1 mph13.0 kmh 30.01 in1016.3 mb - 0.04 in1.0 mm 0.28 in7.1 mm
05:40 AM 43.3°F6.3°C 41.4°F5.2°C 93% 6.9 mph ENE11.1 kmh ENE 10.4 mph16.7 kmh 30.00 in1015.9 mb - 0.00 in0.0 mm 0.24 in6.1 mm
05:30 AM 43.2°F6.2°C 41.3°F5.2°C 93% 5.8 mph ENE9.3 kmh ENE 9.2 mph14.8 kmh 29.99 in1015.6 mb - 0.01 in0.3 mm 0.24 in6.1 mm
05:20 AM 43.1°F6.2°C 41.2°F5.1°C 93% 8.1 mph ENE13.0 kmh ENE 11.5 mph18.5 kmh 29.99 in1015.6 mb - 0.00 in0.0 mm 0.23 in5.8 mm
05:10 AM 42.9°F6.1°C 41.0°F5.0°C 93% 6.9 mph E11.1 kmh E 10.4 mph16.7 kmh 29.99 in1015.6 mb - 0.00 in0.0 mm 0.23 in5.8 mm
05:00 AM 42.7°F5.9°C 40.8°F4.9°C 93% 6.9 mph E11.1 kmh E 8.1 mph13.0 kmh 29.99 in1015.6 mb - 0.00 in0.0 mm 0.23 in5.8 mm
04:50 AM 42.6°F5.9°C 40.7°F4.8°C 93% 8.1 mph E13.0 kmh E 10.4 mph16.7 kmh 29.98 in1015.2 mb - 0.00 in0.0 mm 0.23 in5.8 mm
04:40 AM 42.4°F5.8°C 40.5°F4.7°C 93% 9.2 mph E14.8 kmh E 11.5 mph18.5 kmh 29.99 in1015.6 mb - 0.00 in0.0 mm 0.23 in5.8 mm
04:30 AM 42.1°F5.6°C 40.3°F4.6°C 93% 10.4 mph ENE16.7 kmh ENE 11.5 mph18.5 kmh 29.98 in1015.2 mb - 0.00 in0.0 mm 0.23 in5.8 mm
04:20 AM 42.1°F5.6°C 40.2°F4.6°C 93% 8.1 mph E13.0 kmh E 9.2 mph14.8 kmh 29.99 in1015.6 mb - 0.00 in0.0 mm 0.23 in5.8 mm
04:10 AM 42.1°F5.6°C 40.2°F4.6°C 93% 6.9 mph ENE11.1 kmh ENE 9.2 mph14.8 kmh 29.98 in1015.2 mb - 0.00 in0.0 mm 0.23 in5.8 mm
04:00 AM 42.0°F5.6°C 40.1°F4.5°C 93% 12.7 mph ENE20.4 kmh ENE 13.8 mph22.2 kmh 29.97 in1014.9 mb - 0.00 in0.0 mm 0.23 in5.8 mm
03:50 AM 42.1°F5.6°C 40.2°F4.6°C 93% 10.4 mph E16.7 kmh E 16.1 mph25.9 kmh 29.98 in1015.2 mb - 0.00 in0.0 mm 0.23 in5.8 mm
03:40 AM 42.0°F5.6°C 40.1°F4.5°C 93% 8.1 mph ENE13.0 kmh ENE 13.8 mph22.2 kmh 29.98 in1015.2 mb - 0.00 in0.0 mm 0.23 in5.8 mm
03:30 AM 41.8°F5.4°C 39.6°F4.2°C 92% 10.4 mph ENE16.7 kmh ENE 11.5 mph18.5 kmh 29.98 in1015.2 mb - 0.00 in0.0 mm 0.23 in5.8 mm
03:20 AM 42.0°F5.6°C 39.8°F4.3°C 92% 10.4 mph ENE16.7 kmh ENE 13.8 mph22.2 kmh 30.00 in1015.9 mb - 0.00 in0.0 mm 0.23 in5.8 mm
03:10 AM 42.2°F5.7°C 40.0°F4.4°C 92% 10.4 mph NE16.7 kmh NE 15.0 mph24.1 kmh 30.00 in1015.9 mb - 0.00 in0.0 mm 0.23 in5.8 mm
03:00 AM 42.4°F5.8°C 40.3°F4.6°C 92% 11.5 mph NE18.5 kmh NE 15.0 mph24.1 kmh 30.00 in1015.9 mb - 0.00 in0.0 mm 0.23 in5.8 mm
02:50 AM 42.6°F5.9°C 40.4°F4.7°C 92% 6.9 mph NE11.1 kmh NE 11.5 mph18.5 kmh 30.01 in1016.3 mb - 0.00 in0.0 mm 0.23 in5.8 mm
02:40 AM 42.8°F6.0°C 40.6°F4.8°C 92% 9.2 mph ENE14.8 kmh ENE 12.7 mph20.4 kmh 30.00 in1015.9 mb - 0.01 in0.3 mm 0.23 in5.8 mm
02:30 AM 43.1°F6.2°C 40.9°F4.9°C 92% 10.4 mph ENE16.7 kmh ENE 13.8 mph22.2 kmh 30.00 in1015.9 mb - 0.03 in0.8 mm 0.22 in5.6 mm
02:20 AM 43.4°F6.3°C 40.7°F4.8°C 90% 6.9 mph NE11.1 kmh NE 9.2 mph14.8 kmh 30.02 in1016.6 mb - 0.06 in1.5 mm 0.19 in4.8 mm
02:10 AM 43.7°F6.5°C 41.0°F5.0°C 90% 6.9 mph ENE11.1 kmh ENE 9.2 mph14.8 kmh 30.03 in1016.9 mb - 0.13 in3.3 mm 0.14 in3.6 mm
02:00 AM 43.9°F6.6°C 40.6°F4.8°C 88% 6.9 mph ENE11.1 kmh ENE 9.2 mph14.8 kmh 30.03 in1016.9 mb - 0.03 in0.8 mm 0.03 in0.8 mm
01:50 AM 43.9°F6.6°C 40.3°F4.6°C 87% 6.9 mph NE11.1 kmh NE 10.4 mph16.7 kmh 30.02 in1016.6 mb - 0.00 in0.0 mm 0.00 in0.0 mm
01:40 AM 44.0°F6.7°C 40.7°F4.8°C 88% 6.9 mph NE11.1 kmh NE 9.2 mph14.8 kmh 30.02 in1016.6 mb - 0.00 in0.0 mm 0.00 in0.0 mm
01:30 AM 44.3°F6.8°C 40.7°F4.8°C 87% 9.2 mph ENE14.8 kmh ENE 12.7 mph20.4 kmh 30.00 in1015.9 mb - 0.00 in0.0 mm 0.00 in0.0 mm
01:20 AM 44.3°F6.8°C 40.7°F4.8°C 87% 5.8 mph E9.3 kmh E 10.4 mph16.7 kmh 30.00 in1015.9 mb - 0.00 in0.0 mm 0.00 in0.0 mm
01:10 AM 44.3°F6.8°C 40.7°F4.8°C 87% 6.9 mph ENE11.1 kmh ENE 8.1 mph13.0 kmh 30.01 in1016.3 mb - 0.00 in0.0 mm 0.00 in0.0 mm
01:00 AM 44.3°F6.8°C 40.7°F4.8°C 87% 5.8 mph ENE9.3 kmh ENE 9.2 mph14.8 kmh 30.01 in1016.3 mb - 0.00 in0.0 mm 0.00 in0.0 mm
12:50 AM 44.2°F6.8°C 40.6°F4.8°C 87% 5.8 mph N9.3 kmh N 9.2 mph14.8 kmh 30.02 in1016.6 mb - 0.00 in0.0 mm 0.00 in0.0 mm
12:40 AM 44.2°F6.8°C 40.6°F4.8°C 87% 3.5 mph NE5.6 kmh NE 4.6 mph7.4 kmh 30.01 in1016.3 mb - 0.00 in0.0 mm 0.00 in0.0 mm
12:30 AM 44.2°F6.8°C 40.6°F4.8°C 87% 10.4 mph ENE16.7 kmh ENE 13.8 mph22.2 kmh 30.00 in1015.9 mb - 0.00 in0.0 mm 0.00 in0.0 mm
12:20 AM 44.5°F6.9°C 40.9°F4.9°C 87% 8.1 mph ENE13.0 kmh ENE 12.7 mph20.4 kmh 30.01 in1016.3 mb - 0.00 in0.0 mm 0.00 in0.0 mm
12:10 AM 44.5°F6.9°C 40.9°F4.9°C 87% 8.1 mph ENE13.0 kmh ENE 9.2 mph14.8 kmh 30.00 in1015.9 mb - 0.00 in0.0 mm 0.00 in0.0 mm
12:00 AM 44.4°F6.9°C 40.5°F4.7°C 86% 4.6 mph NE7.4 kmh NE 10.4 mph16.7 kmh 30.00 in1015.9 mb - 0.00 in0.0 mm 0.00 in0.0 mm